When you browse on this site, cookies collect data to enhance your experience and personalize the content and advertising you see.
Visit our Privacy Policy to learn more. By continuing to use the site, you agree to this use of cookies and data.
  • In Spain
  • List of Countries
  • For 7 days
  • Water Temperature
  • Satellite Maps
  • Weather Map
  • Weather Widgets
  • user-avatar
    Login

    Hourly Weather Naftalan

    Today, 19 December, Wednesday

    Time Temperature Precipitation Wind Pressure Humidity
    00:00 +7°C° 0 mm 4 mps 773 mmHg 84%
    01:00 +6°C° 0 mm 4 mps 773 mmHg 84%
    02:00 +6°C° 0 mm 4 mps 773 mmHg 85%
    03:00 +6°C° 0 mm 4 mps 773 mmHg 85%
    04:00 +6°C° 0 mm 4 mps 773 mmHg 85%
    05:00 +6°C° 0 mm 4 mps 773 mmHg 85%
    06:00 +6°C° 0 mm 4 mps 773 mmHg 85%
    07:00 +6°C° 0 mm 4 mps 774 mmHg 83%
    08:00 +7°C° 0 mm 4 mps 774 mmHg 80%
    09:00 +7°C° 0 mm 4 mps 774 mmHg 76%
    10:00 +8°C° 0 mm 4 mps 774 mmHg 75%
    11:00 +8°C° 0 mm 4 mps 774 mmHg 74%
    12:00 +10°C° 0 mm 4 mps 774 mmHg 73%
    13:00 +10°C° 0 mm 4 mps 774 mmHg 74%
    14:00 +10°C° 0 mm 4 mps 774 mmHg 76%
    15:00 +8°C° 0 mm 4 mps 773 mmHg 78%
    16:00 +8°C° 0 mm 5 mps 774 mmHg 79%
    17:00 +8°C° 0 mm 5 mps 774 mmHg 81%
    18:00 +8°C° 0 mm 5 mps 774 mmHg 83%
    19:00 +8°C° 0.1 mm 5 mps 774 mmHg 83%
    20:00 +8°C° 0.1 mm 5 mps 774 mmHg 84%
    21:00 +8°C° 0.1 mm 5 mps 773 mmHg 84%
    22:00 +8°C° 0.1 mm 5 mps 773 mmHg 85%
    23:00 +8°C° 0.1 mm 5 mps 773 mmHg 85%

    Tomorrow, 20 December, Thursday

    Time Temperature Precipitation Wind Pressure Humidity
    00:00 +8°C° 0.1 mm 5 mps 773 mmHg 85%
    01:00 +8°C° 0.1 mm 5 mps 773 mmHg 86%
    02:00 +8°C° 0.1 mm 4 mps 772 mmHg 86%
    03:00 +8°C° 0.1 mm 4 mps 772 mmHg 86%
    04:00 +8°C° 0.4 mm 5 mps 772 mmHg 87%
    05:00 +8°C° 0.4 mm 5 mps 772 mmHg 88%
    06:00 +8°C° 0.4 mm 5 mps 772 mmHg 89%
    07:00 +8°C° 0.5 mm 5 mps 772 mmHg 89%
    08:00 +8°C° 0.5 mm 5 mps 772 mmHg 89%
    09:00 +8°C° 0.5 mm 5 mps 772 mmHg 90%
    10:00 +8°C° 0.4 mm 5 mps 771 mmHg 88%
    11:00 +8°C° 0.4 mm 5 mps 771 mmHg 87%
    12:00 +8°C° 0.4 mm 4 mps 770 mmHg 86%
    13:00 +8°C° 0.3 mm 4 mps 770 mmHg 85%
    14:00 +8°C° 0.3 mm 4 mps 770 mmHg 84%
    15:00 +8°C° 0.3 mm 4 mps 769 mmHg 83%
    16:00 +8°C° 0.1 mm 4 mps 770 mmHg 83%
    17:00 +8°C° 0.1 mm 4 mps 770 mmHg 84%
    18:00 +9°C° 0.1 mm 3 mps 770 mmHg 85%
    19:00 +9°C° 0.6 mm 3 mps 770 mmHg 86%
    20:00 +9°C° 0.6 mm 3 mps 769 mmHg 87%
    21:00 +9°C° 0.6 mm 3 mps 769 mmHg 88%
    22:00 +8°C° 0.8 mm 4 mps 769 mmHg 89%
    23:00 +7°C° 0.8 mm 4 mps 769 mmHg 90%

    Day after tomorrow, 21 December, Friday

    Time Temperature Precipitation Wind Pressure Humidity
    00:00 +7°C° 0.8 mm 4 mps 769 mmHg 91%
    01:00 +7°C° 0.8 mm 4 mps 769 mmHg 90%
    02:00 +7°C° 0.8 mm 5 mps 770 mmHg 90%
    03:00 +7°C° 0.8 mm 5 mps 770 mmHg 90%
    04:00 +7°C° 0.6 mm 5 mps 770 mmHg 90%
    05:00 +7°C° 0.6 mm 5 mps 770 mmHg 89%
    06:00 +7°C° 0.6 mm 6 mps 770 mmHg 89%
    07:00 +7°C° 0.3 mm 6 mps 771 mmHg 87%
    08:00 +7°C° 0.3 mm 6 mps 771 mmHg 86%
    09:00 +7°C° 0.3 mm 6 mps 772 mmHg 85%
    10:00 +7°C° 0.1 mm 6 mps 772 mmHg 83%
    11:00 +7°C° 0.1 mm 6 mps 772 mmHg 80%
    12:00 +7°C° 0.1 mm 6 mps 772 mmHg 78%
    13:00 +7°C° 0 mm 6 mps 772 mmHg 77%
    14:00 +8°C° 0 mm 6 mps 772 mmHg 77%
    15:00 +8°C° 0 mm 6 mps 772 mmHg 76%
    16:00 +7°C° 0 mm 5 mps 772 mmHg 78%
    17:00 +7°C° 0 mm 5 mps 772 mmHg 79%
    18:00 +7°C° 0 mm 5 mps 772 mmHg 81%
    19:00 +6°C° 0.1 mm 5 mps 773 mmHg 82%
    20:00 +6°C° 0.1 mm 5 mps 773 mmHg 83%
    21:00 +6°C° 0.1 mm 5 mps 773 mmHg 83%
    22:00 +6°C° 0 mm 4 mps 773 mmHg 83%
    23:00 +6°C° 0 mm 4 mps 772 mmHg 83%

    22 December, Saturday

    Time Temperature Precipitation Wind Pressure Humidity
    00:00 +7°C° 0 mm 3 mps 772 mmHg 83%
    01:00 +7°C° 0 mm 3 mps 772 mmHg 83%
    02:00 +7°C° 0 mm 3 mps 772 mmHg 83%
    03:00 +7°C° 0 mm 2 mps 772 mmHg 83%
    04:00 +6°C° 0 mm 2 mps 772 mmHg 83%
    05:00 +6°C° 0 mm 2 mps 772 mmHg 83%
    06:00 +6°C° 0 mm 2 mps 772 mmHg 83%
    07:00 +8°C° 0 mm 1 mps 772 mmHg 80%
    08:00 +9°C° 0 mm 1 mps 772 mmHg 78%
    09:00 +9°C° 0 mm 1 mps 772 mmHg 75%
    10:00 +10°C° 0 mm 1 mps 771 mmHg 72%
    11:00 +10°C° 0 mm 2 mps 771 mmHg 69%
    12:00 +12°C° 0 mm 2 mps 771 mmHg 66%
    13:00 +12°C° 0 mm 2 mps 770 mmHg 67%
    14:00 +12°C° 0 mm 2 mps 770 mmHg 67%
    15:00 +12°C° 0 mm 2 mps 769 mmHg 68%
    16:00 +10°C° 0 mm 2 mps 770 mmHg 72%
    17:00 +10°C° 0 mm 3 mps 770 mmHg 76%
    18:00 +9°C° 0 mm 3 mps 770 mmHg 80%
    19:00 +9°C° 0 mm 3 mps 770 mmHg 81%
    20:00 +9°C° 0 mm 3 mps 770 mmHg 82%
    21:00 +8°C° 0 mm 3 mps 770 mmHg 82%
    22:00 +8°C° 0 mm 2 mps 770 mmHg 83%
    23:00 +8°C° 0 mm 2 mps 770 mmHg 84%

    23 December, Sunday

    Time Temperature Precipitation Wind Pressure Humidity
    00:00 +8°C° 0 mm 2 mps 770 mmHg 85%
    01:00 +7°C° 0 mm 2 mps 770 mmHg 85%
    02:00 +7°C° 0 mm 2 mps 770 mmHg 85%
    03:00 +7°C° 0 mm 2 mps 770 mmHg 85%
    04:00 +7°C° 0 mm 2 mps 769 mmHg 86%
    05:00 +7°C° 0 mm 2 mps 769 mmHg 86%
    06:00 +6°C° 0 mm 2 mps 769 mmHg 86%
    07:00 +7°C° 0 mm 2 mps 770 mmHg 83%
    08:00 +8°C° 0 mm 2 mps 770 mmHg 80%
    09:00 +8°C° 0 mm 2 mps 770 mmHg 77%
    10:00 +9°C° 0 mm 2 mps 769 mmHg 73%
    11:00 +10°C° 0 mm 2 mps 769 mmHg 69%
    12:00 +12°C° 0 mm 2 mps 768 mmHg 64%
    13:00 +12°C° 0 mm 2 mps 768 mmHg 64%
    14:00 +13°C° 0 mm 2 mps 767 mmHg 64%
    15:00 +12°C° 0 mm 3 mps 767 mmHg 64%
    16:00 +11°C° 0 mm 3 mps 767 mmHg 71%
    17:00 +10°C° 0 mm 4 mps 767 mmHg 77%
    18:00 +8°C° 0 mm 4 mps 767 mmHg 84%
    19:00 +8°C° 0 mm 4 mps 767 mmHg 85%
    20:00 +8°C° 0 mm 5 mps 766 mmHg 85%
    21:00 +8°C° 0 mm 5 mps 766 mmHg 86%
    22:00 +8°C° 0 mm 5 mps 766 mmHg 85%
    23:00 +8°C° 0 mm 4 mps 765 mmHg 85%

    24 December, Monday

    Time Temperature Precipitation Wind Pressure Humidity
    00:00 +8°C° 0 mm 4 mps 765 mmHg 85%
    01:00 +7°C° 0 mm 4 mps 765 mmHg 83%
    02:00 +7°C° 0 mm 4 mps 764 mmHg 81%
    03:00 +6°C° 0 mm 4 mps 764 mmHg 80%
    04:00 +6°C° 0 mm 4 mps 764 mmHg 76%
    05:00 +6°C° 0 mm 4 mps 764 mmHg 73%
    06:00 +6°C° 0 mm 4 mps 764 mmHg 69%
    07:00 +7°C° 0 mm 4 mps 764 mmHg 63%
    08:00 +8°C° 0 mm 5 mps 764 mmHg 57%
    09:00 +9°C° 0 mm 5 mps 764 mmHg 51%
    10:00 +10°C° 0 mm 5 mps 764 mmHg 48%
    11:00 +12°C° 0 mm 5 mps 764 mmHg 44%
    12:00 +13°C° 0 mm 6 mps 763 mmHg 40%
    13:00 +13°C° 0 mm 5 mps 763 mmHg 40%
    14:00 +13°C° 0 mm 5 mps 763 mmHg 41%
    15:00 +13°C° 0 mm 5 mps 763 mmHg 41%
    16:00 +12°C° 0 mm 5 mps 764 mmHg 45%
    17:00 +10°C° 0 mm 5 mps 764 mmHg 48%
    18:00 +9°C° 0 mm 5 mps 764 mmHg 52%
    19:00 +8°C° 0 mm 6 mps 765 mmHg 50%
    20:00 +8°C° 0 mm 7 mps 765 mmHg 48%
    21:00 +7°C° 0 mm 8 mps 765 mmHg 46%
    22:00 +6°C° 0 mm 8 mps 766 mmHg 45%
    23:00 +6°C° 0 mm 8 mps 766 mmHg 44%
    Show more